Weather History for Cedar City, UT

Change the Weather History Date:

Tuesday, February 19, 2013

  Actual Average Record
Temperature  
Mean Temperature 38 °F 34 °F  
Max Temperature 50 °F 47 °F 68 °F (1981)
Min Temperature 26 °F 21 °F -3 °F (1955)
Degree Days  
Heating Degree Days 27 31  
Month to date heating degree days 629 621  
Since 1 July heating degree days 4277 4296  
Cooling Degree Days 0 0  
Month to date cooling degree days 0 0  
Year to date cooling degree days 0 0  
Moisture  
Dew Point 14 °F    
Average Humidity 44    
Maximum Humidity 63    
Minimum Humidity 24    
Precipitation  
Precipitation 0.00 in 0.04 in 0.56 in (1993)
Month to date precipitation 0.69 0.64  
Year to date precipitation 1.67 1.50  
Sea Level Pressure  
Sea Level Pressure 29.67 in    
Wind  
Wind Speed 12 mph (South)    
Max Wind Speed 26 mph    
Max Gust Speed 37 mph    
Visibility 10 miles    
Events      
T = Trace of Precipitation, MM = Missing Value Source: NWS Daily Summary

Daily Weather History Graph

Daily Weather History Graph

Search for Another Location

Airport:

Trip Planner

Search our weather history database for the weather conditions in past years. The results will help you decide how hot, cold, wet, or windy it might be!

Date:

Astronomy

Feb. 19, 2013 Rise Set
Actual Time 7:16 AM MST 6:16 PM MST
Civil Twilight 6:50 AM MST 6:42 PM MST
Nautical Twilight 6:19 AM MST 7:13 PM MST
Astronomical Twilight 5:49 AM MST 7:43 PM MST
Moon 12:54 PM MST (2/19) 2:48 AM MST (2/19)
Length of Visible Light 11h 52m
Length of Day
10h 59m
Waxing Gibbous, 68% of the Moon is Illuminated
Feb 19
Waxing Gibbous
Feb 25
Full
Mar 4
Last Quarter
Mar 11
New
Mar 19
First Quarter

Hourly Weather History & Observations

Time (MST) Temp. Windchill Dew Point Humidity Pressure Visibility Wind Dir Wind Speed Gust Speed Precip Events Conditions
12:53 AM 28.9 °F 21.9 °F 17.1 °F 61% 29.89 in 10.0 mi SE 6.9 mph - N/A   Clear
1:53 AM 32.0 °F - 12.9 °F 45% 29.86 in 10.0 mi Calm Calm - N/A   Clear
2:53 AM 33.1 °F 25.5 °F 12.0 °F 42% 29.81 in 10.0 mi SW 9.2 mph - N/A   Clear
3:53 AM 33.1 °F - 10.9 °F 40% 29.79 in 10.0 mi Calm Calm - N/A   Clear
4:53 AM 30.9 °F - 12.0 °F 46% 29.77 in 10.0 mi Calm Calm - N/A   Clear
5:53 AM 28.9 °F 25.2 °F 14.0 °F 54% 29.78 in 10.0 mi North 3.5 mph - N/A   Clear
6:53 AM 30.0 °F 26.5 °F 14.0 °F 51% 29.80 in 10.0 mi NE 3.5 mph - N/A   Clear
7:53 AM 39.0 °F 31.4 °F 12.9 °F 34% 29.76 in 10.0 mi South 12.7 mph 23.0 mph N/A   Clear
8:05 AM 39.2 °F 30.5 °F 12.2 °F 33% 29.78 in 10.0 mi South 16.1 mph 21.9 mph N/A   Clear
8:53 AM 42.1 °F 34.5 °F 12.0 °F 29% 29.75 in 10.0 mi South 15.0 mph 21.9 mph N/A   Clear
9:53 AM 44.1 °F 36.8 °F 12.0 °F 27% 29.71 in 10.0 mi South 16.1 mph 26.5 mph N/A   Clear
11:53 AM 46.9 °F - 14.0 °F 27% 29.69 in 10.0 mi South 19.6 mph 34.5 mph N/A   Clear
12:53 PM 48.0 °F - 15.1 °F 27% 29.64 in 10.0 mi SSW 20.7 mph 32.2 mph N/A   Clear
1:53 PM 46.9 °F - 14.0 °F 27% 29.59 in 10.0 mi South 19.6 mph 32.2 mph N/A   Clear
2:53 PM 46.9 °F - 14.0 °F 27% 29.54 in 10.0 mi South 20.7 mph 31.1 mph N/A   Clear
3:53 PM 46.9 °F - 15.1 °F 28% 29.53 in 10.0 mi South 17.3 mph 28.8 mph N/A   Partly Cloudy
5:53 PM 44.1 °F 37.1 °F 15.1 °F 31% 29.51 in 10.0 mi South 15.0 mph 18.4 mph N/A   Scattered Clouds
6:53 PM 42.1 °F 34.9 °F 17.1 °F 37% 29.54 in 10.0 mi South 13.8 mph 23.0 mph N/A   Clear
7:53 PM 39.0 °F 32.3 °F 16.0 °F 39% 29.52 in 10.0 mi South 10.4 mph - N/A   Mostly Cloudy
8:53 PM 39.0 °F 31.4 °F 16.0 °F 39% 29.49 in 10.0 mi South 12.7 mph - N/A   Mostly Cloudy
9:53 PM 37.9 °F 30.5 °F 18.0 °F 45% 29.48 in 10.0 mi South 11.5 mph - N/A   Clear
11:53 PM 37.0 °F 29.3 °F 19.9 °F 50% 29.45 in 10.0 mi SSW 11.5 mph - N/A   Overcast